Probability
39 13 0 0 0 0 0 0 0 0 0 0 0 0 0 0 0 0 0 0 6 13 19 29 39 35 32 26 19 23 26 29 29 29 35 32 32 35 32 32 42 39 39 32 35 32 32 32 42
26 16 0 0 0 0 0 0 0 0 0 0 0 0 0 0 0 0 0 0 10 16 19 26 29 23 29 19 23 19 23 23 29 29 32 32 35 32 32 35 39 35 32 32 32 26 23 32 32
26 3 0 0 0 0 0 0 0 0 0 0 0 0 0 0 0 0 0 6 13 13 19 23 29 19 16 13 19 13 19 23 26 26 26 26 29 29 32 32 29 26 26 29 35 29 29 29 35
0 0 0 0 0 0 0 0 0 0 0 0 0 0 0 0 0 0 0 6 6 16 16 13 23 16 16 16 19 19 16 19 29 29 23 23 23 32 35 29 29 32 29 29 32 29 29 26 26
0 0 0 0 0 0 0 0 0 0 0 0 0 0 0 3 3 0 10 6 6 13 10 10 19 13 16 23 26 23 19 19 23 23 23 23 23 29 29 29 29 32 29 29 26 19 19 16 26
0 0 0 0 0 0 0 0 0 0 0 0 0 0 0 3 3 6 10 6 6 6 6 10 16 16 13 16 26 23 23 16 19 23 23 19 19 13 26 23 23 19 19 23 19 16 13 23 26
0 0 0 0 0 0 0 0 0 0 0 0 0 0 0 3 6 6 6 6 6 6 6 6 10 6 13 13 16 16 19 13 16 10 10 16 19 19 19 19 19 19 16 23 19 19 26 19 13
0 0 0 0 0 0 0 0 0 0 0 0 0 0 0 0 3 3 3 0 3 3 3 3 0 0 3 6 16 16 19 13 6 10 10 10 6 6 6 6 13 13 16 13 16 13 13 19 16
0 0 0 0 0 0 0 0 0 0 3 3 3 0 0 3 3 0 3 0 0 0 0 0 0 0 0 0 3 10 6 6 6 3 6 0 0 0 0 3 6 10 13 13 19 10 6 6 6
0 0 0 0 0 0 0 0 0 0 3 3 3 0 3 3 0 0 0 0 0 0 0 0 0 0 0 0 0 0 0 0 0 0 0 0 0 0 0 3 3 10 10 10 6 6 6 0 0
0 0 0 0 0 0 0 0 0 0 0 0 0 0 3 0 0 0 0 0 0 0 0 0 0 0 0 0 0 0 0 0 0 0 0 0 0 0 0 0 0 3 0 0 3 0 0 0 0
0 0 0 0 0 0 0 0 0 0 0 0 0 0 0 0 0 0 0 0 0 0 0 0 0 0 0 0 0 0 0 0 0 0 0 0 0 0 0 0 0 0 0 0 0 0 0 0 0
0 0 0 0 0 0 0 0 0 0 3 3 3 0 3 0 0 0 0 0 0 0 0 0 0 0 0 0 0 0 0 0 0 0 0 0 0 0 0 0 0 0 0 0 0 0 0 0 0
0 0 0 0 0 0 0 0 0 0 3 3 3 3 0 0 0 0 0 0 0 0 0 0 0 0 0 0 0 0 0 0 0 0 0 0 0 0 0 0 0 0 0 0 0 0 0 0 0
0 0 0 0 0 0 0 0 0 0 3 3 3 3 3 3 3 0 0 0 0 0 0 0 0 0 0 0 0 0 0 0 0 0 0 0 0 0 0 0 0 0 0 0 0 0 0 0 0
0 0 0 0 0 0 0 0 0 0 3 0 3 3 3 3 3 3 3 0 0 0 0 0 0 0 0 0 0 0 0 0 0 0 0 0 0 0 0 0 0 0 0 0 0 0 0 0 0
0 0 0 0 0 0 0 0 0 0 0 0 0 0 0 0 0 0 3 3 0 0 0 0 0 0 0 0 0 0 0 0 0 0 0 0 0 0 0 0 0 0 0 0 0 0 0 0 0
0 0 0 0 0 0 0 0 0 0 0 0 0 0 0 0 0 0 3 3 3 0 0 0 0 0 0 0 0 0 0 0 0 0 0 0 0 0 0 0 0 0 0 0 0 0 0 0 0
0 0 0 0 0 0 0 0 0 0 0 0 0 0 0 0 0 0 0 3 3 0 0 0 0 0 0 0 0 0 0 0 0 0 0 0 0 0 0 0 0 0 0 0 0 0 0 0 0
0 0 0 0 0 0 0 0 0 0 0 0 0 0 0 0 0 0 0 3 3 3 0 0 0 0 0 0 0 0 0 0 0 0 0 0 0 0 0 0 0 0 0 0 0 0 0 0 0
0 0 0 0 0 0 0 0 0 0 0 0 0 0 0 0 0 0 0 0 3 3 3 0 0 0 0 0 0 0 0 0 0 0 0 0 0 0 0 0 0 0 0 0 0 0 0 0 0
0 0 0 0 0 0 0 0 0 0 0 0 0 0 0 0 0 0 0 0 0 3 3 3 0 0 0 0 0 0 0 0 0 0 0 0 0 0 0 0 0 0 0 0 0 0 0 0 0
0 0 0 0 0 0 0 0 0 0 0 0 0 0 0 0 0 0 0 0 0 0 3 3 3 0 0 0 0 0 0 0 0 0 0 0 0 0 0 0 0 0 0 0 0 0 0 0 0
0 0 0 0 0 0 0 0 0 0 0 0 0 0 0 0 0 0 0 0 0 0 3 3 3 0 0 0 0 0 0 0 0 0 0 0 0 0 0 0 0 0 0 0 0 0 0 0 0
0 0 0 0 0 0 0 0 0 0 0 0 0 0 0 0 0 0 0 0 0 0 0 3 3 3 0 0 0 0 0 0 0 0 0 0 0 0 0 0 0 0 0 0 0 0 0 0 0
0 0 0 0 0 0 0 0 0 0 0 0 0 0 0 0 0 0 0 0 0 0 0 3 3 3 0 0 0 0 0 0 0 0 0 0 0 0 0 0 0 0 0 0 0 0 0 0 0
0 0 0 0 0 0 0 0 0 0 0 0 0 0 0 0 0 0 0 0 0 0 0 0 3 3 3 0 0 0 0 0 0 0 0 0 0 0 0 0 0 0 0 0 0 0 0 0 0
0 0 0 0 0 0 0 0 0 0 0 0 0 0 0 0 0 0 0 0 0 0 0 0 3 3 0 0 0 0 0 0 0 0 0 0 0 0 0 0 0 0 0 0 0 0 0 0 0
0 0 0 0 0 0 0 0 0 0 0 0 0 0 0 0 0 0 0 0 0 0 0 0 0 3 0 0 0 0 0 0 0 0 0 0 0 0 0 0 0 0 0 0 0 0 0 0 0
0 0 0 0 0 0 0 0 0 0 0 0 0 0 0 0 0 0 0 0 0 0 0 0 0 0 0 0 0 0 0 0 0 0 0 0 0 0 0 0 0 0 0 0 0 0 0 0 0
Height
5873 5874 5875 5876 5877 5877 5877 5878 5878 5878 5879 5880 5880 5881 5881 5882 5884 5886 5885 5883 5884 5884 5884 5884 5883 5883 5883 5883 5882 5882 5881 5881 5881 5880 5880 5880 5879 5879 5878 5878 5878 5878 5877 5877 5877 5877 5878 5878 5878
5873 5874 5875 5875 5875 5875 5876 5877 5877 5878 5878 5879 5880 5880 5881 5882 5882 5883 5883 5883 5884 5884 5884 5884 5883 5883 5883 5883 5882 5882 5881 5881 5881 5880 5880 5880 5879 5879 5879 5878 5878 5878 5878 5877 5877 5877 5877 5877 5877
5873 5874 5875 5875 5874 5875 5876 5876 5876 5876 5877 5879 5880 5880 5881 5882 5882 5882 5883 5883 5883 5884 5884 5884 5883 5883 5883 5883 5882 5882 5882 5881 5881 5880 5880 5880 5879 5879 5879 5878 5878 5878 5878 5877 5877 5877 5877 5877 5877
5873 5874 5874 5874 5874 5875 5875 5875 5875 5876 5877 5878 5879 5880 5881 5881 5882 5882 5882 5883 5883 5884 5884 5883 5883 5883 5883 5883 5882 5882 5882 5881 5880 5880 5880 5880 5879 5879 5879 5878 5878 5878 5877 5877 5877 5876 5876 5876 5876
5872 5873 5873 5873 5873 5874 5874 5875 5875 5876 5876 5877 5879 5880 5880 5881 5881 5882 5882 5883 5883 5883 5883 5883 5883 5883 5883 5882 5882 5882 5881 5881 5880 5880 5880 5880 5879 5879 5879 5878 5878 5877 5877 5877 5876 5876 5875 5875 5875
5871 5871 5872 5872 5872 5873 5874 5874 5874 5875 5876 5877 5878 5879 5879 5880 5881 5881 5882 5882 5882 5883 5883 5883 5882 5882 5882 5882 5882 5881 5881 5880 5880 5880 5879 5879 5879 5879 5878 5878 5877 5877 5877 5876 5875 5875 5875 5874 5874
5870 5870 5870 5871 5871 5872 5873 5873 5873 5874 5876 5877 5877 5878 5878 5879 5880 5880 5881 5882 5882 5882 5882 5882 5882 5881 5881 5881 5881 5880 5880 5880 5879 5879 5879 5879 5879 5878 5878 5877 5877 5876 5876 5875 5875 5874 5874 5873 5873
5867 5869 5869 5869 5870 5871 5872 5872 5873 5874 5874 5875 5877 5877 5878 5879 5879 5880 5880 5881 5881 5881 5881 5881 5881 5880 5880 5880 5880 5879 5879 5879 5879 5879 5878 5878 5878 5877 5877 5877 5876 5876 5875 5875 5874 5873 5873 5872 5872
5866 5868 5867 5868 5869 5870 5871 5871 5872 5872 5873 5874 5875 5876 5877 5877 5878 5879 5879 5880 5880 5880 5880 5880 5880 5880 5879 5879 5879 5878 5878 5878 5878 5878 5877 5877 5877 5877 5876 5876 5875 5875 5874 5874 5873 5872 5872 5871 5871
5864 5865 5865 5866 5867 5868 5869 5870 5871 5871 5872 5873 5874 5875 5876 5876 5877 5878 5878 5878 5879 5879 5879 5879 5879 5878 5878 5878 5878 5877 5877 5877 5877 5876 5876 5876 5876 5875 5875 5875 5874 5874 5873 5873 5872 5871 5871 5870 5870
5862 5863 5863 5864 5865 5867 5868 5868 5869 5870 5871 5872 5873 5873 5874 5875 5875 5876 5876 5877 5877 5877 5877 5877 5877 5877 5877 5877 5876 5876 5876 5876 5875 5875 5875 5875 5874 5874 5874 5874 5873 5873 5872 5872 5871 5870 5870 5869 5869
5860 5861 5861 5862 5863 5865 5866 5867 5868 5869 5870 5870 5871 5872 5873 5873 5874 5874 5874 5875 5875 5876 5876 5876 5876 5876 5876 5876 5875 5875 5875 5874 5874 5874 5873 5873 5873 5873 5873 5872 5872 5871 5871 5870 5870 5869 5869 5868 5868
5858 5859 5860 5861 5862 5863 5864 5865 5866 5867 5868 5868 5869 5870 5871 5871 5872 5872 5872 5873 5873 5874 5874 5874 5874 5874 5874 5874 5874 5874 5873 5873 5873 5873 5872 5872 5872 5872 5871 5871 5871 5870 5869 5869 5868 5868 5867 5867 5867
5857 5857 5858 5860 5861 5861 5863 5864 5865 5865 5866 5866 5867 5868 5868 5869 5869 5870 5870 5871 5871 5872 5872 5872 5872 5872 5872 5872 5872 5872 5872 5872 5872 5872 5871 5871 5870 5870 5870 5870 5869 5869 5868 5868 5867 5867 5866 5866 5865
5855 5856 5858 5858 5859 5860 5861 5862 5863 5863 5864 5864 5865 5866 5866 5867 5867 5868 5868 5868 5869 5870 5870 5870 5870 5870 5871 5871 5871 5871 5871 5870 5870 5870 5870 5869 5869 5869 5869 5868 5868 5867 5867 5866 5866 5865 5865 5864 5864
5854 5855 5856 5857 5857 5858 5861 5860 5860 5861 5862 5862 5863 5864 5864 5865 5865 5866 5866 5866 5867 5867 5868 5868 5868 5869 5869 5869 5869 5869 5869 5869 5869 5868 5868 5868 5867 5867 5867 5867 5866 5866 5865 5865 5864 5864 5863 5863 5862
5853 5854 5854 5855 5856 5856 5858 5858 5858 5859 5860 5860 5861 5862 5862 5863 5863 5863 5863 5864 5864 5865 5866 5866 5866 5867 5867 5867 5867 5867 5867 5867 5867 5867 5866 5866 5866 5865 5865 5865 5865 5864 5864 5863 5863 5862 5862 5861 5861
5852 5853 5853 5853 5854 5855 5855 5856 5856 5857 5857 5858 5859 5860 5860 5860 5861 5861 5861 5861 5862 5863 5863 5864 5864 5865 5865 5865 5865 5865 5865 5865 5865 5865 5864 5864 5864 5864 5864 5863 5863 5863 5862 5862 5861 5861 5860 5860 5859
5851 5851 5852 5852 5852 5853 5854 5854 5855 5855 5856 5856 5857 5857 5858 5858 5858 5858 5859 5859 5860 5861 5861 5862 5862 5863 5863 5863 5863 5863 5863 5863 5863 5863 5862 5862 5862 5862 5862 5861 5861 5861 5861 5860 5860 5859 5859 5858 5858
5850 5850 5851 5851 5851 5852 5852 5853 5853 5853 5854 5854 5855 5855 5856 5856 5856 5856 5857 5857 5858 5858 5859 5860 5860 5860 5861 5861 5861 5861 5861 5861 5861 5861 5860 5860 5860 5860 5860 5859 5859 5859 5859 5859 5858 5858 5857 5857 5856
5849 5849 5850 5850 5850 5850 5851 5852 5852 5852 5852 5852 5852 5853 5853 5854 5854 5854 5854 5855 5856 5856 5857 5858 5858 5858 5858 5858 5859 5859 5859 5859 5859 5859 5858 5858 5858 5858 5858 5857 5857 5857 5857 5857 5856 5856 5855 5855 5854
5848 5848 5849 5849 5849 5850 5850 5851 5851 5850 5850 5850 5850 5850 5851 5851 5852 5852 5852 5853 5853 5854 5855 5855 5856 5856 5856 5856 5856 5856 5857 5857 5857 5857 5856 5856 5856 5856 5855 5855 5855 5855 5855 5854 5854 5853 5853 5853 5852
5847 5847 5847 5847 5848 5848 5849 5849 5850 5849 5849 5849 5849 5849 5849 5849 5849 5850 5850 5851 5851 5852 5852 5853 5853 5854 5854 5854 5854 5854 5854 5854 5854 5854 5854 5854 5853 5853 5853 5853 5853 5852 5852 5852 5851 5851 5850 5850 5849
5845 5846 5846 5846 5846 5847 5848 5848 5848 5848 5847 5847 5847 5846 5847 5847 5847 5848 5848 5849 5849 5849 5850 5850 5851 5851 5851 5852 5852 5852 5852 5852 5852 5852 5851 5851 5851 5851 5851 5850 5850 5850 5850 5849 5849 5848 5848 5847 5847
5844 5845 5845 5845 5845 5846 5846 5846 5847 5846 5845 5845 5845 5844 5844 5845 5845 5845 5846 5846 5847 5847 5847 5848 5848 5849 5849 5849 5849 5849 5849 5849 5849 5849 5849 5849 5849 5848 5848 5848 5847 5847 5847 5846 5846 5846 5845 5844 5844
5843 5843 5844 5844 5843 5844 5844 5844 5845 5844 5843 5843 5843 5842 5842 5843 5843 5843 5843 5844 5844 5845 5845 5845 5845 5845 5846 5846 5846 5846 5846 5846 5846 5846 5846 5846 5846 5846 5845 5845 5845 5844 5844 5843 5843 5843 5842 5841 5841
5842 5841 5842 5842 5842 5842 5842 5843 5843 5842 5842 5841 5841 5840 5840 5840 5841 5841 5841 5841 5841 5842 5842 5842 5842 5843 5843 5843 5843 5843 5843 5843 5843 5843 5843 5843 5843 5843 5842 5842 5841 5841 5841 5840 5840 5839 5839 5838 5838
5840 5840 5840 5840 5840 5840 5840 5841 5842 5840 5840 5839 5839 5838 5838 5838 5838 5838 5838 5838 5839 5839 5839 5839 5839 5840 5840 5840 5840 5840 5840 5840 5840 5840 5840 5840 5840 5840 5839 5839 5838 5837 5837 5837 5836 5836 5835 5835 5834
5838 5838 5838 5838 5838 5838 5838 5841 5839 5838 5837 5837 5837 5836 5836 5836 5836 5836 5836 5836 5836 5836 5836 5836 5836 5836 5836 5837 5837 5837 5837 5837 5837 5837 5837 5837 5836 5836 5836 5835 5835 5834 5833 5833 5833 5832 5832 5831 5830
5835 5835 5836 5836 5835 5835 5835 5839 5836 5836 5835 5835 5834 5834 5833 5833 5833 5833 5833 5833 5833 5833 5833 5833 5833 5833 5833 5833 5833 5833 5833 5834 5834 5834 5834 5833 5833 5833 5832 5832 5831 5830 5830 5829 5829 5828 5828 5827 5826
Wind_Speed
3 4 5 5 5 5 6 6 7 6 5 5 4 3 2 3 2 1 1 1 1 1 1 2 2 2 3 3 4 5 5 5 5 5 5 5 5 5 5 5 5 4 3 3 3 2 2 1 2
4 5 5 5 6 5 6 6 7 7 7 6 5 3 3 2 2 1 1 1 0 1 1 2 2 2 2 3 3 4 5 5 5 5 5 5 4 4 4 5 5 4 3 3 3 2 3 2 2
6 6 6 5 6 6 6 6 7 7 7 6 6 4 3 3 2 1 1 0 0 1 2 2 2 2 2 2 3 3 4 4 4 4 4 5 4 4 4 4 4 4 4 4 3 3 3 3 3
6 7 7 7 7 7 7 7 7 7 7 7 6 5 4 3 3 2 1 1 1 2 2 2 2 3 2 2 3 3 3 4 4 4 4 4 4 4 4 4 4 4 4 4 4 5 4 4 3
7 7 7 7 7 7 7 8 7 7 7 6 5 4 4 4 3 3 2 1 2 2 3 3 3 3 3 3 3 3 3 3 4 4 4 4 3 4 4 4 4 5 5 5 5 5 5 4 4
8 8 8 8 8 8 7 7 7 7 8 7 6 5 5 5 4 3 3 3 3 3 3 3 3 3 4 4 4 4 4 4 4 4 4 4 4 4 4 4 5 5 6 6 6 5 5 5 4
9 9 8 9 9 8 8 7 6 6 7 7 6 5 5 5 5 4 4 4 4 4 4 4 4 4 4 5 5 5 5 4 4 4 4 4 5 5 5 5 5 6 6 6 6 5 5 5 5
10 10 9 10 9 9 8 8 6 6 6 6 6 6 6 5 5 6 5 5 5 5 5 5 6 5 5 5 5 6 5 4 4 5 5 5 5 5 5 5 6 6 6 6 6 6 5 5 5
11 10 10 10 10 9 9 9 7 6 6 6 7 7 6 6 6 6 7 6 6 6 6 6 6 6 6 6 6 6 5 4 5 5 6 5 5 6 6 6 6 6 6 6 6 6 6 5 5
11 11 11 11 11 11 10 9 8 7 6 6 6 7 7 6 7 7 7 7 7 6 6 6 6 6 7 7 6 7 6 5 6 6 6 6 6 6 6 6 6 6 7 6 6 6 5 5 5
11 12 12 12 11 10 10 9 9 7 7 7 7 7 7 7 8 8 8 8 8 7 7 7 7 6 7 7 8 7 6 6 6 6 6 6 6 6 5 6 6 6 7 7 6 6 5 5 5
11 11 11 11 11 11 10 9 9 9 8 8 8 8 8 9 9 9 9 9 9 9 8 8 8 7 7 7 7 6 6 7 7 6 6 6 6 6 5 6 6 6 7 6 6 6 6 5 6
10 10 9 10 10 10 10 10 10 9 10 10 9 9 10 10 10 10 10 10 10 9 9 8 9 8 8 6 6 7 6 6 6 7 7 6 6 6 6 6 6 6 6 6 6 7 7 6 6
10 9 9 9 10 10 10 10 10 10 10 11 10 10 10 10 10 10 10 10 10 10 10 10 10 9 8 7 6 6 7 7 7 7 7 7 7 7 7 7 6 6 6 6 7 7 7 7 7
9 9 9 10 10 10 11 11 11 10 10 11 11 10 10 10 10 10 11 11 11 11 11 11 10 9 8 8 7 7 8 7 8 8 8 8 8 7 7 7 7 7 7 7 7 7 7 7 8
8 8 8 9 10 10 11 12 11 11 10 10 11 10 10 10 10 11 11 12 11 11 10 10 10 9 8 8 8 8 8 8 9 9 8 8 8 8 7 7 7 7 6 6 7 7 6 7 7
8 8 8 9 9 10 11 11 11 10 10 10 11 11 11 10 11 11 12 12 11 10 10 10 9 9 9 9 8 8 8 9 9 9 9 8 8 8 8 7 7 7 7 7 7 6 6 7 7
7 7 7 8 9 9 9 10 10 10 10 10 11 11 12 12 11 11 11 11 10 10 10 9 9 9 9 9 9 9 9 9 9 9 9 9 8 8 7 7 8 8 7 7 7 7 7 7 7
6 6 6 7 7 7 8 8 9 9 10 10 11 11 10 10 10 11 10 10 10 10 10 10 10 9 9 9 9 9 9 9 9 9 9 9 9 8 7 7 8 7 8 7 7 7 7 7 8
5 6 6 6 7 7 7 7 8 9 9 10 11 11 11 10 10 11 10 10 10 10 10 9 9 9 10 10 10 9 9 9 9 9 9 9 9 9 8 8 8 8 8 8 8 8 8 8 8
7 6 6 6 7 7 7 7 8 7 8 9 9 10 11 10 10 10 10 10 10 10 10 10 10 10 10 10 10 9 9 9 9 9 9 9 9 9 8 8 8 8 9 9 9 9 8 8 8
7 7 7 7 7 7 7 6 7 8 8 8 9 9 10 10 10 10 10 10 10 11 11 11 10 10 10 10 10 10 9 9 9 9 9 9 9 9 9 9 9 9 9 9 9 9 9 9 9
7 7 7 7 7 7 7 7 6 7 7 8 8 8 10 10 10 10 10 10 10 11 11 11 10 10 10 10 10 10 9 9 10 10 10 10 9 9 9 9 9 10 10 10 10 10 10 10 10
8 8 8 8 7 7 7 8 7 7 8 8 8 9 10 10 11 10 10 10 11 11 11 11 11 11 10 10 10 10 10 10 10 10 10 10 10 10 9 9 10 10 10 10 11 11 11 11 11
8 8 8 8 8 7 8 9 7 7 8 8 9 9 10 11 11 11 10 11 11 11 11 12 12 11 11 11 11 11 11 11 11 11 11 11 11 11 10 11 11 10 11 11 11 12 12 12 12
7 7 8 9 9 7 8 8 7 8 8 9 9 10 10 11 11 11 11 11 11 11 12 12 12 12 12 12 12 11 11 11 11 11 11 11 11 11 11 12 12 12 13 13 13 13 13 13 13
8 8 9 9 9 8 8 8 7 9 9 9 9 9 9 10 10 11 11 12 12 12 12 12 12 12 12 12 12 11 11 11 12 12 12 12 12 12 12 12 13 13 13 13 13 13 13 13 13
9 9 9 9 9 9 9 8 8 9 10 10 10 9 9 9 10 11 11 11 11 12 12 12 13 13 13 13 12 12 12 12 12 12 12 13 13 13 13 13 13 13 13 13 13 13 13 14 14
10 10 10 10 10 10 10 9 9 10 10 9 9 10 10 9 10 11 11 11 12 12 12 12 13 13 13 13 13 12 12 12 12 12 12 13 13 13 13 13 13 13 13 13 14 14 14 14 15
11 10 10 11 11 11 11 10 9 9 9 9 9 9 9 10 10 10 11 12 12 12 12 13 13 13 13 13 13 13 12 12 12 12 12 13 13 13 14 14 14 14 14 14 15 15 16 16 16
Wind_Direction
222 225 229 238 248 248 240 224 216 217 211 205 203 205 210 203 177 170 160 117 72 33 354 346 351 359 4 3 5 11 13 9 14 16 15 17 18 18 16 12 9 6 1 2 352 359 1 337 316
231 226 231 244 254 252 241 229 223 220 221 215 214 217 220 205 187 183 167 150 83 11 322 327 338 343 348 348 355 6 7 6 6 4 7 8 12 13 12 9 5 3 5 1 349 336 326 317 308
242 235 242 254 254 250 244 235 225 225 224 220 221 224 219 217 214 208 189 205 211 338 314 318 320 322 333 331 337 356 4 360 358 355 359 5 8 8 5 6 5 3 357 350 340 327 323 305 295
245 246 250 253 254 248 246 243 237 224 219 213 218 225 217 223 218 213 198 232 258 290 295 305 306 294 301 310 319 333 352 355 351 351 351 353 359 1 356 356 353 346 341 336 328 318 312 304 293
248 247 250 254 254 250 246 244 235 223 224 214 217 225 226 223 220 218 221 255 269 275 282 284 288 280 279 288 299 312 327 339 344 341 342 343 351 351 344 343 341 336 333 327 322 315 310 300 296
252 249 247 250 253 253 254 245 241 226 220 221 218 223 225 223 226 228 242 254 259 261 277 278 282 279 276 287 288 292 298 303 325 337 341 342 339 336 336 338 337 335 332 331 328 320 310 301 294
253 248 248 249 252 251 251 244 234 231 220 219 215 214 221 224 227 233 241 250 255 260 272 281 278 276 279 282 283 289 299 301 310 328 327 331 327 319 319 321 324 325 325 327 324 315 308 302 292
252 249 250 249 247 243 241 241 245 250 233 222 216 221 222 226 231 236 239 247 254 261 268 276 277 282 283 283 286 290 293 299 303 311 319 317 318 312 308 311 316 319 320 322 321 317 308 302 295
247 247 249 249 248 243 241 244 248 250 244 237 228 233 233 230 231 238 242 248 258 261 266 271 274 276 285 283 284 285 282 287 298 304 307 309 309 311 311 305 306 310 314 317 318 318 311 303 299
250 249 248 247 247 246 243 243 244 250 245 238 232 235 236 236 237 243 247 251 258 262 263 265 272 273 280 282 282 282 280 287 294 300 302 301 301 307 310 308 304 303 305 308 309 311 310 305 300
252 253 251 247 246 244 243 242 243 246 248 241 234 235 238 239 240 244 249 251 254 261 266 265 268 272 276 279 282 274 278 286 293 295 296 296 298 302 305 305 309 306 303 302 301 303 305 302 298
250 251 251 246 242 242 241 243 248 247 251 248 240 239 240 244 244 247 250 253 254 258 264 266 267 272 275 273 273 276 281 284 292 292 292 293 296 298 299 304 303 305 302 302 304 304 302 297 291
250 248 248 243 241 242 245 246 250 250 253 251 246 246 247 248 249 250 254 255 253 255 263 265 267 269 266 262 273 274 274 279 287 293 292 291 294 295 293 296 299 302 305 306 306 309 304 296 288
249 246 245 242 243 245 247 249 253 250 252 251 251 251 251 249 250 253 254 252 252 256 260 262 260 263 258 255 265 273 275 277 284 290 290 290 292 291 293 296 295 300 304 302 303 305 305 298 289
247 246 246 246 245 246 248 251 254 253 254 252 250 249 249 248 250 253 255 252 253 254 255 253 254 257 258 259 260 270 276 278 276 281 287 288 289 289 291 295 296 298 302 302 301 301 299 296 293
252 252 254 253 251 249 250 256 257 255 253 253 249 250 252 254 252 252 255 253 253 252 252 249 251 254 256 260 262 269 274 272 276 280 286 288 288 285 284 285 290 293 294 300 304 304 302 299 297
257 259 259 253 249 250 253 260 258 253 252 253 252 251 254 257 256 254 254 253 251 248 247 246 248 255 260 260 263 269 270 271 275 278 282 287 290 285 283 281 284 287 288 294 300 303 302 298 297
258 261 260 257 251 253 256 259 252 252 254 255 256 257 258 255 252 254 255 251 247 247 246 247 249 256 260 261 267 269 272 275 275 277 280 284 288 287 283 282 284 285 287 292 298 304 300 298 297
263 262 265 265 264 260 255 256 253 258 254 253 254 256 257 250 250 252 253 249 245 246 246 248 252 260 264 267 269 271 273 275 275 277 280 281 282 281 280 281 283 285 286 289 290 293 294 296 294
261 267 273 272 270 267 265 262 260 262 259 255 250 252 252 249 249 251 250 247 243 245 247 250 258 262 267 270 269 269 274 278 276 279 279 279 279 276 275 277 280 282 285 289 290 291 291 291 292
258 266 276 278 278 272 266 264 263 266 259 254 255 253 251 247 250 250 247 244 244 245 248 254 261 265 267 268 264 268 273 276 278 276 275 276 276 275 273 276 278 281 284 286 289 292 293 292 293
258 260 269 273 272 266 262 258 259 264 263 264 262 255 250 248 249 248 246 247 250 249 251 256 262 265 264 265 267 272 275 274 276 276 276 276 273 274 274 274 276 280 282 286 287 287 287 288 292
262 264 271 278 274 268 266 268 269 265 268 268 264 257 253 252 250 249 247 248 251 253 256 259 261 264 266 264 266 270 271 273 277 278 277 275 274 272 273 274 277 282 284 286 285 282 284 288 292
268 269 273 275 275 271 271 273 273 271 274 272 266 260 257 256 255 254 251 251 254 256 258 258 261 264 265 265 265 267 269 272 276 277 276 274 274 276 276 276 277 277 281 284 286 285 284 288 290
272 268 273 273 273 273 274 277 278 278 277 276 268 265 260 259 256 253 253 256 258 258 258 258 261 264 265 265 266 266 268 271 274 275 275 275 276 277 277 277 276 275 277 281 285 284 287 288 288
277 273 278 280 278 274 274 278 282 281 278 277 275 270 265 260 255 254 257 259 261 261 262 261 263 265 267 266 266 267 270 271 273 274 273 275 275 278 279 279 278 279 279 279 282 282 286 286 289
276 279 284 282 281 276 271 275 283 286 282 281 279 272 267 261 260 258 259 262 263 263 264 265 266 267 267 266 265 268 270 272 275 274 272 273 275 279 282 283 280 279 279 279 279 281 283 285 287
275 279 281 279 280 278 274 275 280 282 284 283 276 272 272 272 268 264 264 264 264 264 266 266 267 269 268 265 266 269 269 272 275 273 272 272 275 277 279 281 281 281 279 277 278 280 282 285 287
276 277 280 277 275 276 279 281 282 282 285 280 274 274 275 276 275 270 267 267 265 265 265 264 264 269 267 265 268 269 269 271 274 273 270 272 274 275 278 278 281 279 277 277 278 278 282 284 287
272 275 277 276 276 277 279 280 280 284 283 281 278 275 272 274 276 274 270 270 269 267 264 263 265 268 268 266 268 269 270 270 272 272 271 273 275 275 277 278 278 278 278 278 279 280 282 284 287